FW7111 Weather Reports


time (UTC)temp
C
wind
direction
speed
KPH
gust
KPH
rain 1hr
cm
rain 24hr
cm
rain mn
cm
humidity
%
barometer
mb
20260508030026 12 39 0.0 0.0 0.00 0.74 0.74 98 1012.2
20260508024542 12 44 0.0 0.0 0.00 0.74 0.74 98 1012.1
20260508024025 12 47 0.0 0.0 0.00 0.74 0.74 98 1011.9
20260508023026 12 47 0.0 0.0 0.00 0.74 0.74 98 1011.8
20260508022526 12 47 0.0 0.0 0.00 0.74 0.74 97 1011.8
20260508022026 12 47 0.0 0.0 0.00 0.74 0.74 97 1011.8
20260508021526 12 47 0.0 0.0 0.00 0.74 0.74 97 1011.8
20260508021026 12 47 0.0 0.0 0.00 0.74 0.74 97 1011.8
20260508020037 12 46 0.0 0.0 0.00 0.74 0.74 97 1011.9
20260508015526 12 46 0.0 0.0 0.00 0.74 0.74 97 1011.7
20260508015026 12 46 0.0 0.0 0.00 0.74 0.74 97 1011.6
20260508014526 12 46 0.0 0.0 0.00 0.74 0.74 97 1011.4
20260508014026 12 46 0.0 0.0 0.00 0.74 0.74 97 1011.1
20260508013526 12 46 0.0 0.0 0.00 0.74 0.74 97 1011.1
20260508013026 12 46 0.0 0.0 0.00 0.74 0.74 97 1011.0
20260508012526 12 47 0.0 0.0 0.00 0.74 0.74 97 1010.9
20260508012026 12 46 0.0 0.0 0.00 0.74 0.74 96 1011.2
20260508011535 12 46 0.0 0.0 0.00 0.74 0.74 96 1011.2
20260508010525 12 46 0.0 0.0 0.00 0.74 0.74 96 1011.3
20260508010026 12 46 0.0 0.0 0.00 0.74 0.74 96 1011.0
20260508005526 12 46 0.0 0.0 0.00 0.74 0.74 96 1010.9
20260508005026 12 46 0.0 0.0 0.00 0.74 0.74 96 1010.8
20260508004526 12 46 0.0 0.0 0.00 0.74 0.74 96 1010.8
20260508003527 12 55 0.0 0.0 0.00 0.74 0.74 95 1010.6
20260508002533 12 53 0.0 0.0 0.00 0.74 0.74 96 1010.7
20260508002026 12 42 0.0 0.0 0.00 0.74 0.74 96 1010.8
20260508001526 12 45 0.0 0.0 0.00 0.74 0.74 96 1010.7
20260508001026 12 41 0.0 0.0 0.00 0.74 0.74 96 1010.6
20260508000526 12 43 0.0 0.0 0.00 0.74 0.74 96 1010.5
20260508000026 12 43 0.0 0.0 0.00 0.74 0.74 96 1010.4
20260507235526 12 42 0.0 0.0 0.00 0.74 0.74 95 1010.0
20260507235025 12 47 0.0 0.0 0.00 0.74 0.74 95 1010.1
20260507234544 12 44 0.0 0.0 0.00 0.74 0.74 96 1010.1
20260507234025 12 38 0.0 0.0 0.00 0.74 0.74 95 1009.8
20260507233526 12 46 0.0 1.6 0.00 0.74 0.74 94 1009.7
20260507233026 12 50 0.0 0.0 0.00 0.74 0.74 94 1009.7
20260507232026 12 49 0.0 0.0 0.00 0.74 0.74 95 1009.6
20260507231526 12 58 0.0 1.6 0.00 0.74 0.74 94 1009.8
20260507230526 12 58 0.0 1.6 0.00 0.74 0.74 94 1009.8
20260507230025 12 54 0.0 1.6 0.00 0.74 0.74 95 1009.8
20260507225525 13 49 0.0 0.0 0.00 0.74 0.74 96 1009.7
20260507224525 13 43 0.0 0.0 0.00 0.74 0.74 96 1009.5
20260507224025 13 46 0.0 0.0 0.00 0.74 0.74 95 1009.6
20260507223525 12 39 0.0 1.6 0.00 0.74 0.74 95 1009.5
20260507222525 13 48 0.0 0.0 0.00 0.74 0.74 96 1009.4
20260507222025 12 50 0.0 1.6 0.00 0.74 0.74 96 1009.6
20260507221525 12 46 0.0 1.6 0.00 0.74 0.74 95 1009.7
20260507221025 12 47 0.0 1.6 0.00 0.74 0.74 95 1009.6
20260507220525 12 55 0.0 1.6 0.00 0.74 0.74 95 1009.8
20260507215025 12 42 0.0 1.6 0.00 0.74 0.74 95 1009.5
20260507214525 12 54 1.6 3.2 0.00 0.74 0.74 95 1009.4
20260507214025 13 46 0.0 1.6 0.00 0.74 0.74 95 1009.5
20260507213525 13 47 0.0 1.6 0.00 0.74 0.74 95 1009.5
20260507213025 13 59 0.0 3.2 0.00 0.74 0.74 95 1009.4
20260507212525 12 46 0.0 1.6 0.00 0.74 0.74 94 1009.4
20260507212025 12 49 0.0 1.6 0.00 0.74 0.74 95 1009.4
20260507211525 13 60 1.6 1.6 0.00 0.74 0.74 95 1009.4
20260507211027 12 64 0.0 1.6 0.00 0.74 0.74 95 1009.4
20260507210525 12 53 0.0 3.2 0.00 0.74 0.74 94 1009.2
20260507210025 12 48 0.0 1.6 0.00 0.74 0.74 95 1008.9
20260507205525 12 54 0.0 3.2 0.00 0.74 0.74 95 1008.9
20260507205025 12 57 1.6 3.2 0.00 0.74 0.74 95 1009.0
20260507204525 12 55 0.0 3.2 0.00 0.74 0.74 95 1009.0
20260507204025 12 61 0.0 4.8 0.00 0.74 0.74 95 1009.1
20260507203525 12 52 0.0 3.2 0.00 0.74 0.74 96 1009.1
20260507203025 12 65 1.6 4.8 0.00 0.74 0.74 97 1009.0
20260507202525 12 54 0.0 3.2 0.00 0.74 0.74 97 1008.9
20260507202025 13 43 0.0 1.6 0.00 0.74 0.74 97 1008.8
20260507201525 13 47 1.6 6.4 0.00 0.74 0.74 98 1008.6
20260507200525 13 58 0.0 1.6 0.00 0.74 0.74 98 1008.8
20260507200025 13 50 0.0 1.6 0.00 0.74 0.74 98 1008.9
20260507194525 13 47 0.0 1.6 0.00 0.74 0.74 98 1008.4
20260507194028 13 60 1.6 4.8 0.00 0.74 0.74 98 1008.4
20260507193525 13 63 0.0 3.2 0.00 0.74 0.74 98 1008.6
20260507193025 13 45 0.0 1.6 0.00 0.74 0.74 98 1008.8
20260507192526 13 63 0.0 3.2 0.00 0.76 0.74 98 1008.9
20260507191025 14 48 0.0 1.6 0.03 0.79 0.74 98 1008.9
20260507190525 14 47 0.0 1.6 0.03 0.79 0.74 98 1008.7
20260507185525 14 44 0.0 1.6 0.03 0.91 0.74 98 1008.2
20260507185025 14 53 0.0 1.6 0.03 0.97 0.74 98 1008.2
20260507184525 14 51 0.0 1.6 0.03 0.97 0.74 98 1008.6
20260507184025 14 50 0.0 0.0 0.03 0.97 0.74 98 1008.8
20260507183025 14 39 0.0 3.2 0.03 0.97 0.74 98 1008.2
20260507182525 15 56 0.0 1.6 0.03 0.97 0.74 98 1008.1
20260507182025 15 47 0.0 0.0 0.03 0.97 0.74 98 1007.9
20260507181525 15 39 0.0 1.6 0.05 0.97 0.74 98 1007.8
20260507181025 15 67 1.6 3.2 0.05 0.94 0.71 98 1008.1
20260507180525 15 55 0.0 1.6 0.05 0.94 0.71 98 1007.9
20260507180025 15 57 1.6 6.4 0.05 0.94 0.71 98 1008.1
20260507175525 15 64 1.6 3.2 0.05 0.94 0.71 98 1008.6
20260507175025 15 52 0.0 3.2 0.05 0.94 0.71 98 1008.9
20260507174525 16 51 0.0 3.2 0.05 0.94 0.71 98 1008.9
20260507173525 16 47 0.0 1.6 0.05 0.94 0.71 98 1008.1
20260507173025 17 51 0.0 1.6 0.05 0.94 0.71 97 1008.0
20260507172525 17 48 0.0 1.6 0.05 0.94 0.71 97 1007.8
20260507172025 19 63 1.6 11.3 0.05 0.94 0.71 97 1007.5
20260507171525 20 44 0.0 1.6 0.03 0.91 0.69 99 1007.0
20260507171025 20 45 0.0 0.0 0.03 0.91 0.69 99 1007.0
20260507170525 20 47 0.0 0.0 0.03 0.91 0.69 99 1007.1
20260507170025 19 42 0.0 0.0 0.03 0.91 0.69 99 1007.0
20260507165525 20 51 0.0 0.0 0.03 0.91 0.69 99 1007.3
20260507165025 20 44 0.0 0.0 0.03 0.91 0.69 99 1007.6
20260507164525 20 52 0.0 1.6 0.03 0.91 0.69 99 1007.6
20260507164025 20 45 0.0 1.6 0.03 0.91 0.69 99 1008.1
20260507163525 20 115 1.6 3.2 0.03 0.91 0.69 99 1008.2
20260507163025 20 37 0.0 1.6 0.00 0.89 0.66 99 1008.3
20260507162525 20 81 1.6 3.2 0.03 0.89 0.66 99 1008.4
20260507161525 20 39 0.0 1.6 0.05 0.89 0.66 99 1008.5
20260507161025 20 39 0.0 0.0 0.05 0.89 0.66 99 1008.7
20260507160525 20 42 0.0 0.0 0.05 0.89 0.66 99 1008.7
20260507160025 20 46 0.0 0.0 0.08 0.89 0.66 99 1008.7
20260507155526 20 41 0.0 0.0 0.08 0.89 0.66 99 1008.7
20260507155025 20 41 0.0 0.0 0.08 0.89 0.66 99 1008.6
20260507154525 20 41 0.0 0.0 0.08 0.89 0.66 99 1008.3
20260507154025 20 42 0.0 0.0 0.08 0.89 0.66 99 1008.1
20260507153525 20 47 0.0 0.0 0.13 0.89 0.66 99 1008.1
20260507153025 20 43 0.0 0.0 0.13 0.89 0.66 99 1008.5
20260507152525 20 42 0.0 0.0 0.13 0.86 0.64 99 1008.5
20260507151525 20 41 0.0 0.0 0.15 0.86 0.64 99 1008.6
20260507151025 19 48 0.0 0.0 0.15 0.86 0.64 99 1008.5
20260507150525 19 47 0.0 0.0 0.15 0.86 0.64 99 1008.6
20260507150025 19 43 0.0 0.0 0.15 0.84 0.61 99 1008.8
20260507145525 19 43 0.0 0.0 0.20 0.84 0.61 99 1008.8
20260507145025 19 42 0.0 0.0 0.23 0.84 0.61 99 1008.9
20260507144525 19 40 0.0 0.0 0.20 0.81 0.58 99 1009.0
20260507144025 19 40 0.0 0.0 0.23 0.81 0.58 99 1008.9
20260507143525 19 45 0.0 0.0 0.23 0.79 0.56 99 1008.9
20260507143025 19 41 0.0 0.0 0.23 0.79 0.56 99 1008.9
20260507142525 19 41 0.0 0.0 0.18 0.74 0.51 99 1008.9
20260507142025 19 42 0.0 0.0 0.15 0.71 0.48 99 1008.8
20260507141525 19 41 0.0 0.0 0.15 0.71 0.48 99 1008.7
20260507140525 19 39 0.0 1.6 0.15 0.71 0.48 99 1008.9
20260507140026 19 74 1.6 3.2 0.13 0.69 0.46 99 1009.1
20260507135525 19 46 0.0 1.6 0.08 0.64 0.41 99 1009.2
20260507135025 19 36 0.0 0.0 0.05 0.61 0.38 99 1009.3
20260507134026 19 32 0.0 1.6 0.03 0.58 0.36 99 1009.3
20260507133525 19 48 0.0 0.0 0.00 0.56 0.33 99 1009.1
20260507133025 19 58 0.0 1.6 0.00 0.56 0.33 99 1009.2
20260507132525 19 40 0.0 1.6 0.00 0.56 0.33 99 1009.2
20260507132025 19 40 0.0 0.0 0.00 0.56 0.33 99 1009.2
20260507131525 19 39 0.0 0.0 0.00 0.56 0.33 99 1009.3
20260507131025 19 39 0.0 0.0 0.00 0.56 0.33 99 1009.2
20260507130525 18 39 0.0 0.0 0.00 0.56 0.33 99 1009.2
20260507130025 18 38 0.0 0.0 0.00 0.56 0.33 99 1009.2
20260507125525 18 38 0.0 0.0 0.00 0.56 0.33 99 1009.3
20260507125025 18 38 0.0 0.0 0.00 0.56 0.33 99 1009.2
20260507124525 18 39 0.0 0.0 0.00 0.56 0.33 99 1009.4
20260507124025 18 40 0.0 0.0 0.05 0.56 0.33 99 1009.4
20260507123525 18 42 0.0 0.0 0.08 0.56 0.33 99 1009.4
20260507123025 18 48 0.0 0.0 0.08 0.56 0.33 99 1009.3
20260507122525 18 46 0.0 0.0 0.08 0.56 0.33 99 1009.1
20260507122025 18 44 0.0 0.0 0.08 0.56 0.33 99 1009.2
20260507121525 18 47 0.0 0.0 0.08 0.56 0.33 99 1009.3
20260507121025 18 48 0.0 0.0 0.08 0.56 0.33 99 1009.2
20260507120525 18 35 0.0 0.0 0.08 0.56 0.33 99 1009.5
20260507120025 18 32 0.0 1.6 0.08 0.56 0.33 99 1009.5
20260507115525 18 50 0.0 1.6 0.08 0.56 0.33 99 1009.3
20260507115025 18 35 0.0 0.0 0.08 0.56 0.33 99 1009.6
20260507114526 18 46 0.0 1.6 0.08 0.56 0.33 99 1009.7
20260507114030 18 41 0.0 0.0 0.03 0.53 0.30 99 1009.7
20260507113525 18 34 0.0 0.0 0.00 0.51 0.28 99 1009.7
20260507113026 18 34 0.0 0.0 0.00 0.51 0.28 99 1009.7
20260507112525 18 34 0.0 0.0 0.03 0.51 0.28 99 1009.7
20260507112034 18 37 0.0 0.0 0.03 0.51 0.28 99 1009.7
20260507111525 18 39 0.0 0.0 0.03 0.51 0.28 99 1009.8
20260507111025 18 39 0.0 0.0 0.03 0.51 0.28 99 1009.8
20260507110525 18 40 0.0 0.0 0.03 0.51 0.28 99 1009.7
20260507110025 18 41 0.0 0.0 0.03 0.51 0.28 99 1009.5
20260507105525 18 42 0.0 0.0 0.03 0.51 0.28 99 1009.2
20260507105025 18 42 0.0 0.0 0.05 0.51 0.28 99 1009.2
20260507104525 18 41 0.0 0.0 0.05 0.51 0.28 99 1009.2
20260507104025 18 38 0.0 0.0 0.05 0.51 0.28 99 1009.2
20260507103525 18 34 0.0 1.6 0.05 0.51 0.28 99 1009.4
20260507103025 18 37 0.0 1.6 0.05 0.51 0.28 99 1009.3
20260507102525 18 38 0.0 0.0 0.05 0.48 0.25 99 1009.2
20260507102025 18 39 0.0 0.0 0.05 0.48 0.25 99 1009.2
20260507101525 18 39 0.0 0.0 0.05 0.48 0.25 99 1009.3
20260507101025 18 39 0.0 0.0 0.05 0.48 0.25 99 1009.3
20260507100525 18 39 0.0 0.0 0.05 0.48 0.25 99 1009.3
20260507100025 18 39 0.0 0.0 0.05 0.48 0.25 99 1009.2
20260507095027 18 39 0.0 0.0 0.00 0.46 0.23 99 1009.3
20260507094525 18 39 0.0 0.0 0.00 0.46 0.23 99 1009.2
20260507094025 18 39 0.0 0.0 0.00 0.46 0.23 99 1009.5
20260507093525 18 39 0.0 0.0 0.00 0.46 0.23 99 1009.4
20260507092525 18 36 0.0 0.0 0.00 0.46 0.23 99 1009.2
20260507092025 18 38 0.0 0.0 0.00 0.46 0.23 99 1009.3
20260507091525 18 45 0.0 0.0 0.03 0.46 0.23 99 1009.3
20260507091027 18 45 0.0 0.0 0.03 0.46 0.23 99 1009.4
20260507090525 18 42 0.0 0.0 0.03 0.46 0.23 99 1009.5
20260507085025 18 40 0.0 0.0 0.05 0.46 0.23 99 1009.5
20260507084525 18 40 0.0 0.0 0.05 0.46 0.23 99 1009.5
20260507084026 18 40 0.0 0.0 0.08 0.46 0.23 99 1009.7
20260507083026 18 40 0.0 0.0 0.08 0.46 0.23 99 1010.0
20260507082525 18 40 0.0 0.0 0.08 0.46 0.23 99 1010.1
20260507082025 18 40 0.0 0.0 0.08 0.46 0.23 99 1010.3
20260507081525 18 40 0.0 0.0 0.05 0.43 0.20 99 1010.3
20260507080525 18 40 0.0 0.0 0.05 0.43 0.20 99 1009.8
20260507080025 18 41 0.0 0.0 0.05 0.43 0.20 99 1009.7
20260507075525 18 50 0.0 0.0 0.05 0.43 0.20 99 1009.5
20260507075025 18 44 0.0 1.6 0.03 0.41 0.18 99 1010.1
20260507074525 18 43 0.0 0.0 0.03 0.41 0.18 99 1010.3
20260507074025 18 33 0.0 0.0 0.00 0.38 0.15 99 1010.5
20260507073527 18 36 0.0 0.0 0.00 0.38 0.15 99 1010.7
20260507073025 18 42 0.0 0.0 0.00 0.38 0.15 99 1010.5
20260507072525 18 42 0.0 0.0 0.00 0.38 0.15 99 1010.6
20260507072025 18 42 0.0 0.0 0.00 0.38 0.15 99 1010.3
20260507071525 18 42 0.0 0.0 0.00 0.38 0.15 99 1010.4
20260507071025 18 42 0.0 0.0 0.00 0.38 0.15 99 1010.5
20260507070525 18 42 0.0 0.0 0.00 0.38 0.15 99 1010.2
20260507070025 18 42 0.0 0.0 0.00 0.38 0.15 99 1010.0
20260507065025 18 42 0.0 0.0 0.00 0.38 0.15 99 1010.5
20260507064525 18 42 0.0 0.0 0.00 0.38 0.15 99 1010.7
20260507063525 18 42 0.0 0.0 0.00 0.38 0.15 99 1011.1
20260507062525 18 45 0.0 0.0 0.00 0.38 0.15 99 1011.0
20260507062025 18 52 0.0 0.0 0.03 0.38 0.15 99 1010.6
20260507061525 18 51 0.0 0.0 0.03 0.38 0.15 99 1011.1
20260507061025 18 52 0.0 0.0 0.05 0.38 0.15 99 1011.4
20260507060525 18 57 0.0 1.6 0.05 0.38 0.15 99 1011.4
20260507060025 18 48 0.0 1.6 0.08 0.38 0.15 99 1011.3
20260507055525 18 37 0.0 0.0 0.08 0.38 0.15 99 1011.5
20260507055026 18 38 0.0 0.0 0.10 0.38 0.15 99 1011.4
20260507054525 18 38 0.0 0.0 0.10 0.38 0.15 99 1011.2
20260507054026 18 38 0.0 0.0 0.13 0.38 0.15 99 1010.8
20260507053525 18 40 0.0 0.0 0.13 0.38 0.15 99 1010.4
20260507053025 18 44 0.0 0.0 0.15 0.38 0.15 99 1010.4
20260507052525 18 39 0.0 0.0 0.15 0.38 0.15 99 1010.6
20260507052025 18 42 0.0 1.6 0.13 0.36 0.13 98 1010.6
20260507051526 18 66 0.0 1.6 0.13 0.36 0.13 98 1010.7
20260507051026 18 88 1.6 1.6 0.10 0.33 0.10 98 1011.0
20260507050525 18 74 1.6 3.2 0.10 0.33 0.10 98 1011.2
20260507045526 19 55 0.0 1.6 0.08 0.30 0.08 97 1012.2
20260507045025 19 136 1.6 3.2 0.05 0.28 0.05 97 1012.7
20260507044525 20 103 1.6 3.2 0.05 0.28 0.05 95 1012.7
20260507044025 20 59 1.6 3.2 0.03 0.25 0.03 94 1012.6
20260507043526 20 179 1.6 4.8 0.03 0.25 0.03 93 1012.6
20260507043025 20 111 1.6 3.2 0.00 0.23 0.00 90 1012.5
20260507042525 20 147 1.6 4.8 0.00 0.23 0.00 90 1012.6
20260507042025 20 106 1.6 3.2 0.00 0.23 0.00 92 1012.6
20260507041025 20 34 0.0 1.6 0.00 0.23 0.00 94 1012.3
20260507040026 20 39 0.0 0.0 0.00 0.23 0.00 94 1011.9
20260507035525 20 37 0.0 0.0 0.00 0.23 0.23 93 1011.7
20260507035025 20 40 0.0 0.0 0.00 0.23 0.23 93 1011.5
20260507034025 20 45 0.0 0.0 0.00 0.23 0.23 93 1011.1
20260507033526 20 45 0.0 0.0 0.00 0.23 0.23 93 1011.3
20260507032525 20 38 0.0 0.0 0.00 0.23 0.23 93 1011.8
20260507032025 20 40 0.0 0.0 0.00 0.23 0.23 93 1011.7
20260507031526 20 39 0.0 0.0 0.00 0.23 0.23 93 1011.7
20260507031025 20 40 0.0 0.0 0.00 0.23 0.23 93 1011.6
20260507030525 20 42 0.0 0.0 0.00 0.23 0.23 94 1011.5